Hourly Data Report for June 26, 2003

All times are specified in Local Standard Time (LST). Add 1 hour to adjust for Daylight Saving Time where and when it is observed.

TORONTO CITY
ONTARIO

43°40'00.000" N
79°24'00.000" W
112.50 m
6158355
71508
XTO

Download Data

Hourly Data (June 2003)
Hourly Data Report for June 26, 2003
TIME Temp Definition
°C
Dew Point Definition
°C
Rel Hum Definition
%
Wind Dir Definition
10's deg

Wind Spd Definition
km/h
Visibility Definition
km
Stn Press Definition
kPa
Hmdx Definition


Wind Chill Definition


Weather Definition


00:00 23.7 17.1 67 LegendMM LegendMM LegendMM 99.91 29   LegendNANA
01:00
02:00 21.4 16.9 76 LegendMM LegendMM LegendMM 99.84 27   LegendNANA
03:00 21.2 17.3 78 LegendMM LegendMM LegendMM 99.79 27   LegendNANA
04:00 22.1 17.7 76 LegendMM LegendMM LegendMM 99.75 28   LegendNANA
05:00 22.0 17.8 77 LegendMM LegendMM LegendMM 99.78 28   LegendNANA
06:00 21.2 17.7 80 LegendMM LegendMM LegendMM 99.76 27   LegendNANA
07:00 22.3 18.3 78 LegendMM LegendMM LegendMM 99.78 29   LegendNANA
08:00 24.1 18.2 70 LegendMM LegendMM LegendMM 99.75 30   LegendNANA
09:00 26.0 19.0 65 LegendMM LegendMM LegendMM 99.71 33   LegendNANA
10:00 27.6 19.2 60 LegendMM LegendMM LegendMM 99.65 35   LegendNANA
11:00 29.2 19.4 56 LegendMM LegendMM LegendMM 99.60 36   LegendNANA
12:00 30.4 19.8 53 LegendMM LegendMM LegendMM 99.54 38   LegendNANA
13:00 30.9 21.5 57 LegendMM LegendMM LegendMM 99.47 40   LegendNANA
14:00 30.9 21.4 57 LegendMM LegendMM LegendMM 99.40 40   LegendNANA
15:00 30.5 21.2 58 LegendMM LegendMM LegendMM 99.31 39   LegendNANA
16:00 30.2 19.8 54 LegendMM LegendMM LegendMM 99.27 38   LegendNANA
17:00 28.7 18.7 55 LegendMM LegendMM LegendMM 99.22 35   LegendNANA
18:00 27.0 17.6 56 LegendMM LegendMM LegendMM 99.19 33   LegendNANA
19:00 27.2 19.5 63 LegendMM LegendMM LegendMM 99.18 34   LegendNANA
20:00 27.9 18.3 56 LegendMM LegendMM LegendMM 99.17 34   LegendNANA
21:00
22:00 24.9 18.1 66 LegendMM LegendMM LegendMM 99.19 31   LegendNANA
23:00 25.0 19.8 73 LegendMM LegendMM LegendMM 99.21 32   LegendNANA

Notes on Data Quality.

Legend

  • E = Estimated
  • M = Missing
  • NA = Not Available
Date modified: